Flag for U.S.A. Weather past 2 weeks in Bloomington, Indiana, U.S.A.

Now
47 °F

Passing clouds.


Feels Like: 46 °F
Forecast: 37 / 57 °F
Wind: 3 mph from North

Location: Monroe County Airport

Current Time: Oct 21, 2014 at 10:19:44 PM

Latest Report: Oct 21, 2014 at 9:53 PM


Visibility: 10 mi

Pressure: 30.18 "Hg

Humidity: 83%

Dew point: 42 °F

Location of BloomingtonLocation

Historic Weather in Bloomington — Graph

°F

Bloomington temperature yesterday

Maximum temperature yesterday: 68 °F (at 4:53 PM)
Minimum temperature yesterday: 45 °F (at 12:53 AM)
Average temperature yesterday: 56 °F

Past Weeks' High & Low Weather Summary

 TemperatureHumidityPressure
High74 °F (Oct 13, 3:53 PM)100% (Oct 13, 12:03 AM)30.26 "Hg (Oct 13, 12:03 AM)
Low42 °F (Oct 18, 11:53 PM)35% (Oct 8, 4:53 PM)29.52 "Hg (Oct 14, 6:53 AM)
Average55 °F82%29.93 "Hg
* Reported Oct 6 8:53 PM — Oct 21 8:53 PM, Bloomington, Weather by CustomWeather, © 2014

Note: Actual official high and low records may vary slightly from our data, if they occured in-between our weather recording intervals... More about our weather records

Advertising

Bloomington weather history for previous 24 hours

 ConditionsComfort  
Time TempWeatherWind HumidityBarometerVisibility
8:53 PM
Oct 21
50 °FClear.No wind74%30.16 "Hg10 mi
7:53 PM53 °FOvercast.6 mph66%30.14 "Hg10 mi
6:53 PM54 °FOvercast.8 mph62%30.13 "Hg10 mi
5:53 PM57 °FScattered clouds.6 mph53%30.11 "Hg10 mi
4:53 PM57 °FBroken clouds.10 mph53%30.11 "Hg10 mi
3:53 PM57 °FMostly cloudy.8 mph55%30.09 "Hg10 mi
2:53 PM56 °FMore clouds than sun.8 mph55%30.09 "Hg10 mi
1:53 PM54 °FMostly cloudy.10 mph67%30.10 "Hg10 mi
12:53 PM55 °FMore clouds than sun.12 mph69%30.09 "Hg10 mi
11:53 AM54 °FMostly cloudy.10 mph72%30.09 "Hg10 mi
10:53 AM55 °FScattered clouds.9 mph74%30.08 "Hg10 mi
9:53 AM51 °FPartly sunny.7 mph86%30.08 "Hg10 mi
8:53 AM48 °FOvercast.No wind93%30.05 "Hg10 mi
7:53 AM47 °FOvercast.No wind93%30.03 "Hg10 mi
6:53 AM45 °FOvercast.No wind97%30.02 "Hg10 mi
5:53 AM48 °FOvercast.No wind93%30.00 "Hg10 mi
4:53 AM43 °FOvercast.No wind97%29.99 "Hg9 mi
3:53 AM45 °FPassing clouds.No wind93%29.97 "Hg10 mi
2:53 AM46 °FPassing clouds.No wind89%29.97 "Hg10 mi
1:53 AM48 °FPassing clouds.3 mph89%29.96 "Hg10 mi
12:53 AM51 °FClear.No wind80%29.96 "Hg10 mi
11:53 PM
Oct 20
55 °FClear.3 mph69%29.96 "Hg10 mi
10:53 PM55 °FClear.5 mph69%29.94 "Hg10 mi
Weather by CustomWeather, © 2014

See weather overviewHow to use our weather pages